Погода в Непрядве

Россия / Тульская область     53°32′38″N   38°16′44″E
темп.,
°C
ветер,
м/с
пор.,
м/с
влажн.,
%
обл.,
%
осадки,
мм/ч
давл.,
гПа
погр.,
м
7 марта, вс
вс700:00−12з459045 0.0 101886
03:00−13зюз5109122 0.0 1016163
06:00−12юз6148923 0.0 1013310
09:00−8юз9198361 0.0 1009664
12:00−5юз111883100 0.0 1004960
15:00−3юз121990100 0.3 10001236
18:00−2зюз101988100 0.6 9981139
21:00−5сз4995100 4.4 998314
8 марта, пн
пн800:00−7зюз5128960 0.2 1000270
03:00−9зюз5148530 0.2 1001283
06:00−9зюз6149023 0.0 999360
09:00−7з6139146 0.0 1001592
12:00−6з7118898 0.1 1001889
15:00−5зсз7107798 0.2 10031156
18:00−8зсз4109158 0.0 1006329
21:00−11зсз4109363 0.1 1008199
9 марта, вт
вт900:00−11зсз489671 0.0 1010155
03:00−14сз349769 0.1 101274
06:00−15сз349778 0.0 101485
09:00−15ссз379574 0.0 1016219
12:00−12ссз468939 0.0 1017440
15:00−11сз468863 0.0 1018609
18:00−14сз349394 0.0 101950
21:00−16сз349356 0.0 102262
10 марта, ср
ср1000:00−18ссз34958 0.0 102250
03:00−20сз339828 0.0 102422
06:00−22сз23970 0.0 102520
09:00−20сз23962 0.0 1026103
12:00−16с228498 0.0 1027279
15:00−14с117799 0.0 1026370
18:00−15в1291100 0.0 102520
21:00−16вюв339597 0.1 102764
11 марта, чт
чт1100:00−18юв369588 0.0 1026106
03:00−17ююв599694 0.2 1026218
06:00−15ююв51095100 0.1 1025310
09:00−12ю6994100 0.3 1024341
12:00−8ю699398 0.1 1023429
15:00−6ююз7119299 0.3 1021472
18:00−7ююз51291100 0.1 1020431
21:00−7ююз51491100 0.1 1020378